ROMMA est une association bénévole à but non lucratif. Votre soutien est indispensable : ADHERER à ROMMA ou FAIRE un DON

Crêts du Salève - (74, Haute-Savoie)

Salève (1270 m)   Longitude: 6° 10' 28'' E   Latitude: 46° 7' 42'' N Station romma n°73
 

Détail journalier du     <<     >>

Température Precipitation Humidité Vent Dir Rafale Dir. rafale Ensol.
Heure (°C) (mm) (%) (km/h) (km/h) (min)
01:00 15.004340S58S0
02:00 15.004245S61S0
03:00 14.204640S56S0
04:00 13.605038S56S0
05:00 13.804837S56SSE0
06:00 12.905235S53S0
07:00 13.105227S47S0
08:00 13.105927SSO50SO0
09:00 12.906225SO45SO50
10:00 13.405718SO40S60
11:00 13.206420SO44SO60
12:00 12.407723SO35SO20
13:00 12.508223OSO50N40
14:00 12.708214OSO32O10
15:00 13.908121SO45S50
16:00 13.508130SSO66S10
17:00 14.207342S68S10
18:00 13.907635S58S40
19:00 14.407334SSE60S30
20:00 14.607332SSE53SSE0
21:00 14.907337S55SSE0
22:00 14.807436S55S0
23:00 14.807237S55S0
minuit 13.607920SSO50S0

Graphique du 12-10-2019

 

Serveur OMMA